THORAD AGENA D DEB, 10136

Orbit data source: Space-Track

THORAD AGENA D DEB, 10136 is space debris in SSO originally from a launch on Wed, 08 Apr 1970 UTC launched from the Air Force Western Test Range (AFWTR). Debris objects in space refer to the collection of defunct objects orbiting the Earth. Examples of debris include non-operational satellites, rocket bodies, and fragments generated from explosions, collisions, or faulty payload assembly.

Loading next visibility...
Identifier
10136, 1970-025NQ
Orbit
SSO
Country
Flag of USUS
Related business
Manufacturer
Unknown
Mission
Spacecraft
Bus & Motor
Unknown
Mass
Unknown
Launch date (UTC)
1970-04-08 (56 years ago)
Launch vehicle
Unknown
Launch site
Air Force Western Test Range (AFWTR)
Object type
Payload
Rocket body
Debris
Shape & HBR
Unknown shape, 0.3 m
Radar Cross Section
Small (<0.1 m²)

Expand to show TLE details & history
Last TLE update: 11 hours ago

TLE from 11 hours ago
0 THORAD AGENA D DEB
1 10136U 70025NQ  25287.69840156  .00000071  00000-0  17939-3 0  9998
2 10136 100.1309 253.4075 0000494 217.9689 216.5942 13.51993214737321
Epoch: 2025-10-14T16:45Z
TLE epoch observation values (Epoch: 2025-10-14T16:45:41.894Z)
Latitude
71.6732°
Longitude
-53.95754°
Altitude
1,077.502 km
Speed
7.32 km/s
True Right ascension
14h 43m 48s
True Declination
71° 34' 29"
Sunlit
Object was in daylight at epoch
Visualization orbit readout
Latitude
Unknown
Longitude
Unknown
Altitude
Unknown
Speed
Unknown
Apparent Right ascension
Unknown
Apparent Declination
Unknown
Sunlit
N/A
Visualization observer readout
Local Sidereal Time
22:05:51
Azimuth
Unknown
Elevation
Unknown
Doppler factor
Unknown
Orbital elements
Apogee altitude
1,062.623 km
Perigee altitude
1,061.888 km
Semi-major axis
7,440.392 km
Eccentricity
0.00005
Inclination
100.1309°
RAAN
253.4075°
Arg. of periapsis
217.9689°
True anomaly
216.59083°
Mean anomaly
216.5942°
Eccentric anomaly
216.59251°
Mean motion
3.38181 °/min
Orbital period
106.45 mins
BSTAR
0.00017939

Documentation

Showing up to 5 results
|